Location: Veytaux
(46.4185°N, 6.9320°E)
Time: 08:15:36
(UTC+00:00)

ASTEX 1 - Pass Details

Date: 27 May 2022
Orbit: 721 x 741 km, 92.7° (Epoch: 02 July)

Event Time Altitude Azimuth Distance (km) Brightness Sun altitude
Rises 00:09:53 0° 0° (N) 3,150 8.1 -21.7°
Reaches altitude 10° 00:12:14 10° 355° (N) 2,227 7.0 -21.6°
Maximum altitude 00:16:56 48° 282° (WNW) 955 3.9 -21.5°
Enters shadow 00:18:11 38° 241° (WSW) 1,097 4.0 -21.4°
